Regional Weather Roundup
Issued by NWS

Home | Current Version | Previous Version | Graphics & Text | Print | Product List | Glossary On
Versions: 1 2 3 4 5 6 7 8 9 10 11 12 13 14 15 16 17 18 19 20 21 22 23 24 25 26 27 28 29 30 31 32 33 34 35 36 37 38 39 40 41 42 43 44 45 46 47 48 49 50
000
ASUS43 KMPX 251601
RWRMN
WEATHER ROUNDUP FOR MINNESOTA
NATIONAL WEATHER SERVICE TWIN CITIES/CHANHASSEN MN
1100 AM CDT MON SEP 25 2017


NOTE: "FAIR" INDICATES FEW OR NO CLOUDS BELOW 12,000 FEET WITH NO
SIGNIFICANT WEATHER AND/OR OBSTRUCTIONS TO VISIBILITY. N/A MEANS
CURRENT SKY AND/OR WEATHER CONDITIONS ARE NOT AVAILABLE.

MNZ060>063-068>070-251700-
   Twin Cities Metro

CITY           SKY/WX    TMP DP  RH WIND       PRES   REMARKS
TWIN CITIES    CLOUDY    61  59  93 N10       30.00S
ST PAUL        LGT RAIN  60  59  96 N9        30.00S
CRYSTAL        LGT RAIN  58  54  86 N7        29.99F
BLAINE         LGT RAIN  59  59 100 N7        30.00F
LAKEVILLE      CLOUDY    61  61 100 N6        30.00S
EDEN PRAIRIE   LGT RAIN  59  56  89 N9        29.99S
SOUTH ST PAUL  CLOUDY    61  59  93 N7        29.99F
LAKE ELMO      CLOUDY    61  59  94 N7        30.01F
$$
MNZ001>005-007-008-013>017-022>024-027-028-251700-
   Northwest Minnesota

CITY           SKY/WX    TMP DP  RH WIND       PRES   REMARKS
BEMIDJI        CLOUDY    48  47  97 N9        30.06F
HALLOCK          N/A     50  46  87 N13       30.12F
ROSEAU           N/A     46  43  87 N9        30.11R
WARROAD        CLOUDY    48  45  87 NW9       30.10S
CROOKSTON      CLOUDY    48  46  93 N12       30.12S
FOSSTON        CLOUDY    48  46  93 N10       30.10S
DETROIT LAKES  CLOUDY    50  46  87 N5        30.08S
MOORHEAD       CLOUDY    50  46  87 N13       30.10S
PARK RAPIDS    CLOUDY    51  47  86 N9        30.05F
MAHNOMEN       CLOUDY    50  47  90 N10G16    30.08F
$$
MNZ006-009>011-018-025>026-251700-
   North Central Minnesota

CITY           SKY/WX    TMP DP  RH WIND       PRES   REMARKS
BAUDETTE       PTSUNNY   52  49  89 N9        30.08S
FLAG ISLAND    CLOUDY    52  45  76 N12       30.09R
INTL FALLS     CLOUDY    53  50  89 N7        30.06S
WASKISH        CLOUDY    52  48  87 N7        30.07F
BIG FORK       CLOUDY    52  50  93 NW6       30.05F FOG
LONGVILLE      CLOUDY    52  48  87 N6        30.05R
GRAND RAPIDS   LGT RAIN  51  49  92 N10       30.06R
CRANE LAKE     CLOUDY    52  52 100 CALM      30.05F
ORR            CLOUDY    52  48  87 NW3       30.02S FOG
WALKER         CLOUDY    50  47  88 NW9       30.06S
$$
MNZ012-019>021-037-251700-
   Northeast Minnesota

CITY           SKY/WX    TMP DP  RH WIND       PRES   REMARKS
DULUTH         CLOUDY    53  52  96 NW6       30.02R
ELY            CLOUDY    54  52  94 NW5       30.03R
HIBBING        LGT RAIN  50  49  96 N10       30.03S
EVELETH        LGT RAIN  53  52  97 N6        30.03F
GRAND MARAIS     N/A     62  59  90 N3        29.97R
$$
MNZ029>031-032-039>041-046>048-054>057-064-251700-
   West Central Minnesota

CITY           SKY/WX    TMP DP  RH WIND       PRES   REMARKS
FERGUS FALLS   CLOUDY    52  50  93 N9G17     30.07S
WHEATON        CLOUDY    52  46  82 N14       30.10R
ALEXANDRIA     CLOUDY    52  50  93 N10       30.07R
ELBOW LAKE     CLOUDY    51  47  87 N13       30.07R
WADENA         CLOUDY    52  48  87 N8        30.05S
GLENWOOD       CLOUDY    52  48  87 N12       30.06R
APPLETON       CLOUDY    54  48  82 N9        30.07R
BENSON         CLOUDY    54  50  87 NE9       30.08R
ORTONVILLE     CLOUDY    54  46  76 N10       30.08R
MADISON        CLOUDY    55  54  94 N10       30.07F
WILLMAR        CLOUDY    54  54 100 N9        30.05S
$$
MNZ033>034-036-042>043-049>051-058-059-251700-
   Central Minnesota

CITY           SKY/WX    TMP DP  RH WIND       PRES   REMARKS
ST CLOUD       CLOUDY    55  54  96 VRB6      30.02F
SAUK CENTRE    CLOUDY    52  50  93 N7        30.04F
PAYNESVILLE    CLOUDY    53  51  91 N8        30.04S
AITKIN         CLOUDY    52  50  93 N7        30.04R
PINE RIVER     CLOUDY    50  46  87 N8        30.07F
BRAINERD       LGT RAIN  53  50  89 NE9       30.04S
STAPLES        CLOUDY    52  48  87 N8        30.06R
LITTLE FALLS   CLOUDY    52  46  82 NW5       30.04S
LITCHFIELD     CLOUDY    55  55 100 N6        30.03S
BUFFALO        DRIZZLE   55  52  91 N7        30.02F
MAPLE LAKE     LGT RAIN  56  54  95 N5        30.03S
HUTCHINSON     RAIN      55  54  96 N3        30.02S
$$
MNZ037-044-045-052-053-251700-
   East Central Minnesota

CITY           SKY/WX    TMP DP  RH WIND       PRES   REMARKS
PRINCETON      LGT RAIN  57  55  94 N3        30.02F
MORA           PTSUNNY   54  50  87 N3        30.04F
RUSH CITY      CLOUDY    55  53  93 NW6       30.03S
MOOSE LAKE     CLOUDY    54  50  87 N5        30.02S
HINCKLEY       CLOUDY    55  54  94 N3        30.03S
CLOQUET        CLOUDY    54  50  87 N5        30.03R
MCGREGOR       CLOUDY    54  50  87 N5        30.04S
$$
MNZ071>073-080-081-089-090-097-098-251700-
   Southwest Minnesota

CITY           SKY/WX    TMP DP  RH WIND       PRES   REMARKS
MONTEVIDEO     CLOUDY    54  52  94 NE9       30.06R
GRANITE FALLS  CLOUDY    55  52  90 NW9       30.06S
CANBY          CLOUDY    52  49  89 N8        30.08S
MARSHALL       CLOUDY    52  49  89 N10       30.07R
REDWOOD FALLS  CLOUDY    54  52  93 VRB6      30.05R
OLIVIA         CLOUDY    54  52  94 N8        30.02S
PIPESTONE      CLOUDY    52  48  87 NE8G16    30.05S
WORTHINGTON    CLOUDY    51  50  96 N13       30.04S FOG
JACKSON        DRIZZLE   52  52 100 N3        30.04R
TRACY          CLOUDY    53  52  97 N8        30.07R
SLAYTON        CLOUDY    50  44  78 N12       30.06R
$$
MNZ065>067-074>077-082>085-091>093-251700-
   South Central Minnesota

CITY           SKY/WX    TMP DP  RH WIND       PRES   REMARKS
MANKATO        CLOUDY    58  56  93 N9        29.99F
NEW ULM        CLOUDY    55  54  94 N6        30.02R
ST JAMES       CLOUDY    55  54  94 NW6       30.03R
FAIRMONT       CLOUDY    56  55  97 N12       30.01R
FARIBAULT      CLOUDY    61  61 100 N6        29.99S
OWATONNA       CLOUDY    63  61  94 N6        29.99S
WASECA         CLOUDY    59  55  88 NW5       30.00F
ALBERT LEA     CLOUDY    66  64  94 NE3       29.98S
$$
MNZ078>079-086>088-094>096-251700-
   Southeast Minnesota

CITY           SKY/WX    TMP DP  RH WIND       PRES   REMARKS
ROCHESTER      CLOUDY    73  67  81 VRB7      29.98S
RED WING       CLOUDY    68  63  83 N5        29.96S
STANTON        CLOUDY    62  60  93 N7        29.98S FOG
DODGE CENTER   CLOUDY    68  64  88 NE5       29.98S
WINONA         MOSUNNY   77  63  61 E5        29.95S
AUSTIN         RAIN      66  64  94 CALM      29.98R
PRESTON        SUNNY     74  64  70 CALM      29.98R
$$
ABBREVIATIONS USED IN REMARKS
   TC - TEMPERATURES IN CELSIUS
  WCI - WIND CHILL INDEX
   HX - HEAT INDEX
  VSB - VISIBILITY
$$




USA.gov is the U.S. government's official web portal to all federal, state and local government web resources and services.